User: anonymous
Location: Wilsall
(45.9940°N, 110.6590°W)
Time: 22:20:03
(UTC-06:00)
Language:

GP-B - Orbit

View from above orbital plane
View from above orbital plane
View from above satellite
View from above satellite

Ground track
Ground track

The orbit data is extracted from the following two-line orbital elements,

1 28230U 04014A   14291.64285051  .00000235  00000-0  30652-4 0  1949
2 28230 089.8807 138.2972 0002975 091.7948 268.3615 14.77678503565421
Epoch (UTC): 18 October 2014 15:25:42
Eccentricity: 0.0002975
inclination: 89.8807°
perigee height: 634 km
apogee height: 639 km
right ascension of ascending node: 138.2972°
argument of perigee: 91.7948°
revolutions per day: 14.77678503
mean anomaly at epoch: 268.3615°
orbit number at epoch: 56542

The dashed part of the orbit path shows where the satellite is in the earth's shadow,  

DLR